Powrót do katalogu

CZ-6A DEB

AktywnySSO
NORAD 56613·DEBRIS·🇨🇳 China

Wystrzelony Nov 11, 2022 z Taiyuan Satellite Launch Center

Loading…

Następne Przeloty (najbliższe 24 godziny)

TLE

ŚwieżeSource: Space-Track

Epoka: Sep 14, 2026, 06:50 UTC

1 56613U 22151AEM 26257.28509875  .00000698  00000-0  33150-3 0  9996
2 56613  98.7996 282.3119 0003592  50.0619 310.0874 14.22706467180895

Śledź CZ-6A DEB w czasie rzeczywistym z AllMySat

Download on the App Store